This demonstration page uses our WeatherBlox Daily Observations layout. Learn more.

Left ArrowRight Arrow

39.92423, -83.80882

Hourly Observations for March 6, 2018

Temp ( °F °C ) Dew Point ( °F °C ) Humidity (%) Winds ( mph kmh ) Pressure ( in mb ) Visibility ( mi km ) Precip ( " mm )
12:56 am 00:56 Mostly Clear with Light Rain 35 1.7 25 -3.9 67 67 E 13 20 29.93 1013 10 16 N/A
1:56 am 01:56 Clear 35 1.7 25 -3.9 67 67 E 15 24 29.88 1012 10 16 N/A
2:56 am 02:56 Clear 35 1.7 24 -4.4 64 64 E 14 22 29.85 1011 10 16 N/A
3:56 am 03:56 Clear 36 2.2 24 -4.4 62 62 ESE 9 15 29.84 1010 10 16 N/A
4:56 am 04:56 Clear 35 1.7 25 -3.9 67 67 SSE 6 9 29.85 1011 10 16 N/A
5:56 am 05:56 Clear 36 2.2 25 -3.9 64 64 S 3 6 29.83 1010 10 16 N/A
6:56 am 06:56 Clear 34 1.1 26 -3.3 73 73 SSE 5 7 29.82 1010 10 16 N/A
7:56 am 07:56 Sunny 36 2.2 25 -3.9 64 64 S 5 7 29.82 1010 10 16 N/A
8:56 am 08:56 Sunny 40 4.4 27 -2.8 60 60 SSW 10 17 29.79 1009 10 16 N/A
9:56 am 09:56 Sunny 44 6.7 30 -1.1 58 58 WSW 9 15 29.78 1008 10 16 N/A
10:56 am 10:56 Sunny 48 8.9 27 -2.8 44 44 WSW 8 13 29.77 1008 10 16 N/A
11:56 am 11:56 Sunny 50 10 26 -3.3 39 39 SW 17 28 29.75 1007 10 16 N/A
12:56 pm 12:56 Sunny 51 10.6 24 -4.4 35 35 WSW 18 30 29.71 1006 10 16 N/A
1:56 pm 13:56 Sunny 52 11.1 26 -3.3 37 37 SW 21 33 29.68 1005 10 16 N/A
2:56 pm 14:56 Sunny 54 12.2 29 -1.7 38 38 WSW 16 26 29.67 1005 10 16 N/A
3:56 pm 15:56 Sunny 54 12.2 24 -4.4 31 31 SW 18 30 29.65 1004 10 16 N/A
4:56 pm 16:56 Sunny 52 11.1 24 -4.4 34 34 WSW 20 31 29.65 1004 10 16 N/A
5:56 pm 17:56 Sunny 50 10 22 -5.6 33 33 SW 14 22 29.65 1004 10 16 N/A
6:40 pm 18:40 Clear 46 8 30 -1 53 53 NW 25 41 29.65 1004 10 16 N/A
6:56 pm 18:56 Clear 43 6.1 33 0.6 68 68 NW 24 39 29.70 1006 10 16 N/A
7:56 pm 19:56 Clear 39 3.9 34 1.1 82 82 NW 17 28 29.75 1008 10 16 N/A
8:56 pm 20:56 Clear 37 2.8 34 1.1 89 89 NW 10 17 29.76 1008 10 16 N/A
9:56 pm 21:56 Clear 37 2.8 33 0.6 86 86 N N/A 29.74 1007 10 16 N/A
10:56 pm 22:56 Clear 36 2.2 34 1.1 93 93 WSW 5 7 29.74 1007 10 16 N/A
11:56 pm 23:56 Clear 35 1.7 33 0.6 93 93 SW 3 6 29.72 1007 10 16 N/A

Powered by AerisWeather